This is the latest recevied weather packets stored in our database for station/object KB0BS-13. If no packets are shown the sender has not sent any weather packets the latest 10 day(s).
| Time | Temp. | Humidity | Pressure | Rain* | Wind** | Luminosity | Snow |
|---|---|---|---|---|---|---|---|
| 1777997940 | 7.78° C | 56% | 1005.7 hPa | 0 mm | - | 858 W/m² | - |
| 1777997637 | 7.22° C | 58% | 1005.8 hPa | 0 mm | - | 449 W/m² | - |
| 1777997334 | 7.22° C | 58% | 1005.9 hPa | 0 mm | - | 274 W/m² | - |
| 1777997033 | 6.67° C | 60% | 1005.8 hPa | 0 mm | - | 256 W/m² | - |
| 1777996729 | 7.22° C | 59% | 1005.8 hPa | 0 mm | - | 477 W/m² | - |
| 1777995818 | 6.11° C | 60% | 1005.8 hPa | 0 mm | - | 129 W/m² | - |
| 1777995514 | 6.11° C | 59% | 1005.7 hPa | 0 mm | - | 199 W/m² | - |
| 1777995211 | 6.11° C | 58% | 1005.7 hPa | 0 mm | - | 131 W/m² | - |
| 1777994908 | 6.67° C | 60% | 1005.6 hPa | 0 mm | - | 120 W/m² | - |
| 1777994605 | 6.11° C | 59% | 1005.4 hPa | 0 mm | - | 123 W/m² | - |
| 1777994300 | 6.67° C | 58% | 1005.5 hPa | 0 mm | - | 165 W/m² | - |
| 1777993997 | 6.67° C | 60% | 1005.4 hPa | 0 mm | - | 193 W/m² | - |
| 1777993694 | 6.67° C | 58% | 1005.4 hPa | 0 mm | - | 386 W/m² | - |
| 1777993391 | 7.22° C | 57% | 1005.2 hPa | 0 mm | - | 439 W/m² | - |
| 1777993091 | 7.22° C | 58% | 1005.2 hPa | 0 mm | - | 723 W/m² | - |
| 1777992790 | 6.67° C | 59% | 1005.1 hPa | 0 mm | - | 442 W/m² | - |
| 1777992487 | 6.67° C | 58% | 1005.1 hPa | 0 mm | - | 323 W/m² | - |
| 1777991882 | 6.67° C | 61% | 1005 hPa | 0 mm | - | 318 W/m² | - |
| 1777990973 | 6.11° C | 62% | 1004.8 hPa | 0 mm | - | 531 W/m² | - |
| 1777990671 | 6.67° C | 62% | 1004.8 hPa | 0 mm | - | 503 W/m² | - |
| 1777990064 | 6.11° C | 64% | 1004.8 hPa | 0 mm | - | 482 W/m² | - |
| 1777989761 | 5.56° C | 65% | 1004.6 hPa | 0 mm | - | 467 W/m² | - |
| 1777988548 | 5° C | 65% | 1004.2 hPa | 0 mm | - | 416 W/m² | - |
| 1777988244 | 5° C | 69% | 1004.3 hPa | 0 mm | - | 390 W/m² | - |
| 1777987941 | 5° C | 69% | 1003.7 hPa | 0 mm | - | 379 W/m² | - |
* Rain latest hour (hover to see other rain measurements)
** Current wind speed in m/s (hover to see current wind gust speed)